Burlington, VT

3:43 PM EDT on May 26, 2017 (GMT -0400)
Burlington International

Weather History for KBTV - September, 2012

Change the Weather History Date:

Wednesday, September 12, 2012

  Actual Average Record
Temperature  
Mean Temperature 64 °F 62 °F  
Max Temperature 80 °F 72 °F 90 °F (1947)
Min Temperature 48 °F 52 °F 37 °F (1946)
Degree Days  
Heating Degree Days 1 4  
Month to date heating degree days 17 37  
Since 1 July heating degree days 20 79  
Cooling Degree Days 0 2  
Month to date cooling degree days 43 29  
Year to date cooling degree days 733 477  
Growing Degree Days 14 (Base 50)    
Moisture  
Dew Point 50 °F    
Average Humidity 64    
Maximum Humidity 89    
Minimum Humidity 39    
Precipitation  
Precipitation 0.00 in 0.12 in 2.48 in (1960)
Month to date precipitation 3.50 1.34  
Year to date precipitation 24.50 25.41  
Snow  
Snow 0.00 in 0.00 in 0.00 in (2002)
Month to date snowfall 0.0 0.0  
Since 1 July snowfall 0.0 0.0  
Since 1 September snowfall 0.0 0.0  
Snow Depth 0.00 in    
Sea Level Pressure  
Sea Level Pressure 30.27 in    
Wind  
Wind Speed 8 mph (South)    
Max Wind Speed 17 mph    
Max Gust Speed 24 mph    
Visibility 10 miles    
Events      
T = Trace of Precipitation, MM = Missing Value Source: NWS Daily Summary

Daily Weather History Graph

Daily Weather History Graph

Search for Another Location

Airport or City:

Trip Planner

Search our weather history database for the weather conditions in past years. The results will help you decide how hot, cold, wet, or windy it might be!

Date:

Astronomy

Sep. 12, 2012 Rise Set
Actual Time 6:28 AM EDT 7:07 PM EDT
Civil Twilight 5:59 AM EDT 7:37 PM EDT
Nautical Twilight 5:24 AM EDT 8:11 PM EDT
Astronomical Twilight 4:48 AM EDT 8:47 PM EDT
Moon 2:35 AM EDT (9/12) 4:59 PM EDT (9/12)
Length of Visible Light 13h 37m
Length of Day
12h 39m
Waning Crescent, 14% of the Moon is Illuminated
Sep 12
Waning Crescent
Sep 15
New
Sep 22
First Quarter
Sep 29
Full
Oct 8
Last Quarter

Hourly Weather History & Observations

Time (EDT) Temp. Dew Point Humidity Pressure Visibility Wind Dir Wind Speed Gust Speed Precip Events Conditions
12:54 AM 52.0 °F 48.0 °F 86% 30.25 in 10.0 mi Calm Calm - N/A   Clear
1:55 AM 51.1 °F 48.0 °F 89% 30.26 in 10.0 mi Calm Calm - N/A   Clear
2:54 AM 50.0 °F 46.9 °F 89% 30.27 in 10.0 mi Calm Calm - N/A   Clear
3:54 AM 50.0 °F 46.9 °F 89% 30.27 in 10.0 mi Calm Calm - N/A   Clear
4:54 AM 50.0 °F 46.0 °F 86% 30.29 in 10.0 mi Calm Calm - N/A   Clear
5:54 AM 50.0 °F 46.0 °F 86% 30.29 in 10.0 mi Calm Calm - N/A   Clear
6:54 AM 48.0 °F 45.0 °F 89% 30.31 in 10.0 mi ESE 3.5 mph - N/A   Clear
7:54 AM 54.0 °F 48.9 °F 83% 30.32 in 10.0 mi Calm Calm - N/A   Clear
8:54 AM 62.1 °F 48.9 °F 62% 30.32 in 10.0 mi South 8.1 mph - N/A   Clear
9:54 AM 66.9 °F 50.0 °F 54% 30.32 in 10.0 mi South 9.2 mph - N/A   Clear
10:54 AM 70.0 °F 48.9 °F 47% 30.31 in 10.0 mi South 12.7 mph - N/A   Clear
11:54 AM 73.0 °F 51.1 °F 46% 30.30 in 10.0 mi South 15.0 mph - N/A   Clear
12:54 PM 75.0 °F 51.1 °F 43% 30.29 in 10.0 mi South 13.8 mph 18.4 mph N/A   Clear
1:54 PM 77.0 °F 50.0 °F 39% 30.27 in 10.0 mi South 16.1 mph 23.0 mph N/A   Clear
2:54 PM 78.1 °F 51.1 °F 39% 30.25 in 10.0 mi SSW 11.5 mph 19.6 mph N/A   Clear
3:54 PM 79.0 °F 51.1 °F 38% 30.24 in 10.0 mi SSW 13.8 mph 19.6 mph N/A   Clear
4:54 PM 78.1 °F 51.1 °F 39% 30.23 in 10.0 mi South 13.8 mph 20.7 mph N/A   Clear
5:54 PM 77.0 °F 51.1 °F 40% 30.23 in 10.0 mi South 12.7 mph 18.4 mph N/A   Clear
6:54 PM 73.0 °F 52.0 °F 48% 30.23 in 10.0 mi South 8.1 mph - N/A   Clear
7:54 PM 71.1 °F 52.0 °F 51% 30.25 in 10.0 mi South 9.2 mph - N/A   Clear
8:54 PM 70.0 °F 52.0 °F 53% 30.26 in 10.0 mi South 10.4 mph - N/A   Clear
9:54 PM 69.1 °F 52.0 °F 54% 30.26 in 10.0 mi South 10.4 mph - N/A   Clear
10:54 PM 68.0 °F 51.1 °F 55% 30.27 in 10.0 mi South 9.2 mph - N/A   Clear
11:54 PM 68.0 °F 52.0 °F 56% 30.27 in 10.0 mi South 11.5 mph - N/A   Clear